Regional Weather Roundup
Issued by NWS Albany, NY

Home | Current Version | Previous Version | Text Only | Print | Product List | Glossary On
Versions: 1 2 3 4 5 6 7 8 9 10 11 12 13 14 15 16 17 18 19 20 21 22 23 24 25 26 27 28 29 30 31 32 33 34 35 36 37 38 39 40 41 42 43 44 45 46 47 48 49 50
352
ASUS41 KALY 140410
RWRALY

NEW YORK STATE HOURLY WEATHER ROUNDUP
NATIONAL WEATHER SERVICE ALBANY NY
1100 PM EST SAT FEB 13 2016

NOTE: "FAIR" INDICATES FEW OR NO CLOUDS BELOW 12,000 FEET WITH NO
SIGNIFICANT WEATHER AND/OR NO OBSTRUCTIONS TO VISIBILITY.

NYZ032-033-038>043-046>054-057>066-NYZ062>081-140500-
EAST


CITY           SKY/WX    TMP DP  RH WIND       PRES   REMARKS
ALBANY         PTCLDY    -8 -26  41 NW22G28   30.32S WCI -33
GLENS FALLS    CLEAR    -10 -27  42 NW13G21   30.31R WCI -30
POUGHKEEPSIE   CLOUDY     3  -9  57 N12       30.27S WCI -13
NEWBURGH       MOCLDY     1 -11  55 NW14G23   30.24S WCI -17
MONTGOMERY     CLOUDY     3 -13  47 NW9       30.24F WCI -12
WHITE PLAINS   CLEAR      3 -16  40 W23G36    30.22F WCI -19
ISLIP          PTCLDY     5 -16  37 NW23G32   30.26F WCI -17
NEW YORK CITY  PTCLDY     8  -9  45 NW26G37   30.30F WCI -14
CENTRAL PARK   CLEAR      6 -14  39 NW10G24   30.30F WCI  -9
$$

NYZ005>009-017-018-044>046-055-056-140500-
CENTRAL


CITY           SKY/WX    TMP DP  RH WIND       PRES   REMARKS
FULTON         SNOW      -7 -14  71 E6        30.40R VSB 1/2 WCI -20
SYRACUSE       LGT SNOW -10 -15  78 N10       30.40R WCI -29
ROME           PTCLDY   -15 -26  57 NW10      30.40R WCI -35
ELMIRA         CLOUDY     1  -7  68 CALM      30.31R HAZE
BINGHAMTON     SNOW      -3  -8  79 NW15G25   30.15S VSB 1/2 WCI -23
MONTICELLO     CLOUDY    -2  -8  78 NW12G23   30.13S WCI -20
$$

NYZ026>034-041>043-140500-
NORTH


CITY           SKY/WX    TMP DP  RH WIND       PRES   REMARKS
WATERTOWN      CLOUDY   -19 -28  63 N3        30.45R
FORT DRUM      NOT AVBL
MASSENA        PTCLDY   -15 -28  52 W12       30.43S WCI -36
SARANAC LAKE   CLOUDY   -23 -30  70 W3        30.13S
PLATTSBURGH    PTCLDY   -15 -28  52 NW9       30.35S WCI -34
$$

NYZ001>004-010>016-019>021-140500-
WEST


CITY           SKY/WX    TMP DP  RH WIND       PRES   REMARKS
NIAGARA FALLS  LGT SNOW   1  -6  72 N12       30.44R VSB 3/4 WCI -16
BUFFALO        MOCLDY    -2  -8  76 NW6       30.42R WCI -14
DUNKIRK        LGT SNOW   5  -3  69 NW14      30.43R WCI -12
JAMESTOWN      CLOUDY     1  -2  85 NW9       30.26S WCI -14
WELLSVILLE     MOCLDY    -3 -11  68 NW16      30.20S WCI -24
ROCHESTER      LGT SNOW  -2  -7  79 N9        30.42R VSB 1   WCI -18
PENN YAN       LGT SNOW  -1  -8  72 NW14      30.33R WCI -20
$$

             KEY
       WCI = WIND CHILL INDEX
       VSB = VISIBILITY
       HX  = HEAT INDEX
$$




USA.gov is the U.S. government's official web portal to all federal, state and local government web resources and services.